Weather History for Rickenbacker, OH

Change the Weather History Date:

Monday, November 26, 2012

  Actual Average Record
Temperature  
Mean Temperature 40 °F -  
Max Temperature 49 °F 47 °F 68 °F (2006)
Min Temperature 30 °F 32 °F 26 °F (2004)
Degree Days  
Heating Degree Days 26    
Moisture  
Dew Point 26 °F    
Average Humidity 57    
Maximum Humidity 83    
Minimum Humidity 33    
Precipitation  
Precipitation 0.00 in - - ()
Sea Level Pressure  
Sea Level Pressure 30.14 in    
Wind  
Wind Speed 2 mph (NNE)    
Max Wind Speed 13 mph    
Max Gust Speed -    
Visibility 10 miles    
Events      
Averages and records for this station are not official NWS values.
T = Trace of Precipitation, MM = Missing Value Source: NWS Daily Summary

Daily Weather History Graph

Daily Weather History Graph

Search for Another Location

Airport:

Trip Planner

Search our weather history database for the weather conditions in past years. The results will help you decide how hot, cold, wet, or windy it might be!

Date:

Astronomy

Nov. 26, 2012 Rise Set
Actual Time 7:29 AM EST 5:08 PM EST
Civil Twilight 6:59 AM EST 5:38 PM EST
Nautical Twilight 6:26 AM EST 6:11 PM EST
Astronomical Twilight 5:53 AM EST 6:44 PM EST
Moon 4:00 PM EST (11/26) 5:38 AM EST (11/26)
Length of Visible Light 10h 39m
Length of Day
9h 39m
Waxing Gibbous, 97% of the Moon is Illuminated
Nov 26
Waxing Gibbous
Nov 28
Full
Dec 6
Last Quarter
Dec 13
New
Dec 20
First Quarter

Hourly Weather History & Observations

Time (EST) Temp. Windchill Dew Point Humidity Pressure Visibility Wind Dir Wind Speed Gust Speed Precip Events Conditions
12:15 AM 38.7 °F 36.3 °F 26.6 °F 62% 30.02 in 10.0 mi West 3.5 mph - N/A   Overcast
12:35 AM 39.9 °F - 26.2 °F 58% 30.02 in 10.0 mi Calm Calm - N/A   Overcast
12:55 AM 38.3 °F - 27.9 °F 66% 30.03 in 10.0 mi Calm Calm - N/A   Overcast
1:15 AM 37.2 °F - 28.4 °F 70% 30.03 in 10.0 mi Calm Calm - N/A   Overcast
1:35 AM 37.4 °F - 28.6 °F 70% 30.03 in 10.0 mi Calm Calm - N/A   Overcast
1:55 AM 37.6 °F - 28.4 °F 69% 30.03 in 10.0 mi Calm Calm - N/A   Scattered Clouds
2:15 AM 37.6 °F 35.1 °F 28.0 °F 68% 30.03 in 10.0 mi SSE 3.5 mph - N/A   Scattered Clouds
2:35 AM 37.2 °F 34.7 °F 27.9 °F 69% 30.03 in 10.0 mi SSE 3.5 mph - N/A   Scattered Clouds
2:55 AM 37.2 °F 34.7 °F 27.7 °F 68% 30.05 in 10.0 mi South 3.5 mph - N/A   Scattered Clouds
3:15 AM 36.9 °F - 27.5 °F 69% 30.06 in 10.0 mi Calm Calm - N/A   Scattered Clouds
3:35 AM 37.0 °F - 27.3 °F 68% 30.06 in 10.0 mi Calm Calm - N/A   Scattered Clouds
3:55 AM 36.5 °F 33.9 °F 27.5 °F 70% 30.07 in 10.0 mi South 3.5 mph - N/A   Scattered Clouds
4:15 AM 36.7 °F - 27.5 °F 69% 30.07 in 10.0 mi Calm Calm - N/A   Clear
4:35 AM 36.5 °F - 27.9 °F 71% 30.07 in 10.0 mi Calm Calm - N/A   Scattered Clouds
4:55 AM 36.0 °F - 27.9 °F 72% 30.08 in 10.0 mi Calm Calm - N/A   Scattered Clouds
5:15 AM 36.7 °F - 27.7 °F 70% 30.09 in 10.0 mi Calm Calm - N/A   Scattered Clouds
5:35 AM 36.5 °F - 27.5 °F 70% 30.10 in 10.0 mi Calm Calm - N/A   Mostly Cloudy
5:55 AM 35.8 °F - 27.5 °F 72% 30.11 in 10.0 mi Calm Calm - N/A   Scattered Clouds
6:15 AM 34.7 °F - 27.5 °F 75% 30.11 in 10.0 mi Calm Calm - N/A   Clear
6:35 AM 33.3 °F - 27.1 °F 78% 30.12 in 10.0 mi Calm Calm - N/A   Clear
6:55 AM 32.9 °F - 27.3 °F 80% 30.13 in 10.0 mi Calm Calm - N/A   Clear
7:15 AM 32.4 °F - 26.8 °F 80% 30.15 in 10.0 mi Calm Calm - N/A   Clear
7:35 AM 30.7 °F - 25.9 °F 82% 30.15 in 10.0 mi Calm Calm - N/A   Clear
7:55 AM 30.6 °F - 26.1 °F 83% 30.15 in 10.0 mi Calm Calm - N/A   Clear
8:15 AM 30.2 °F - 25.7 °F 83% 30.16 in 10.0 mi Calm Calm - N/A   Clear
8:35 AM 31.6 °F - 26.6 °F 82% 30.16 in 10.0 mi Calm Calm - N/A   Clear
8:55 AM 33.8 °F - 28.6 °F 81% 30.18 in 10.0 mi Calm Calm - N/A   Clear
9:15 AM 37.6 °F - 29.3 °F 72% 30.18 in 10.0 mi Calm Calm - N/A   Clear
9:35 AM 38.8 °F - 29.1 °F 68% 30.18 in 10.0 mi Calm Calm - N/A   Clear
9:55 AM 39.9 °F - 28.8 °F 64% 30.18 in 10.0 mi Calm Calm - N/A   Clear
10:15 AM 41.4 °F - 28.0 °F 59% 30.18 in 10.0 mi Calm Calm - N/A   Clear
10:35 AM 42.4 °F - 27.7 °F 56% 30.19 in 10.0 mi Calm Calm - N/A   Clear
10:55 AM 43.3 °F - 26.8 °F 52% 30.19 in 10.0 mi Calm Calm - N/A   Clear
11:15 AM 44.2 °F 42.7 °F 25.2 °F 47% 30.19 in 10.0 mi NE 3.5 mph - N/A   Clear
11:35 AM 44.8 °F - 24.4 °F 45% 30.18 in 10.0 mi Calm Calm - N/A   Clear
11:55 AM 45.5 °F 44.2 °F 23.9 °F 43% 30.17 in 10.0 mi NNW 3.5 mph - N/A   Clear
12:15 PM 46.2 °F - 23.7 °F 41% 30.17 in 10.0 mi Calm Calm - N/A   Clear
12:35 PM 46.8 °F - 23.5 °F 40% 30.16 in 10.0 mi NW 3.5 mph - N/A   Clear
12:55 PM 47.5 °F - 23.7 °F 39% 30.16 in 10.0 mi Calm Calm - N/A   Clear
1:15 PM 48.4 °F - 23.2 °F 37% 30.15 in 10.0 mi SE 3.5 mph - N/A   Clear
1:35 PM 49.1 °F - 23.0 °F 36% 30.15 in 10.0 mi West 3.5 mph - N/A   Clear
1:55 PM 49.1 °F - 22.6 °F 35% 30.15 in 10.0 mi West 3.5 mph - N/A   Clear
2:15 PM 48.9 °F - 21.2 °F 34% 30.15 in 10.0 mi Calm Calm - N/A   Clear
2:35 PM 49.1 °F - 21.6 °F 34% 30.15 in 10.0 mi Calm Calm - N/A   Clear
2:55 PM 49.5 °F - 21.2 °F 33% 30.15 in 10.0 mi Calm Calm - N/A   Clear
3:15 PM 49.3 °F - 22.1 °F 34% 30.15 in 10.0 mi Calm Calm - N/A   Clear
3:35 PM 48.9 °F - 21.7 °F 34% 30.15 in 10.0 mi Calm Calm - N/A   Clear
3:55 PM 48.0 °F - 23.0 °F 37% 30.15 in 10.0 mi ENE 3.5 mph - N/A   Scattered Clouds
4:15 PM 47.3 °F - 25.7 °F 43% 30.15 in 10.0 mi East 3.5 mph - N/A   Mostly Cloudy
4:35 PM 46.9 °F - 24.8 °F 42% 30.15 in 10.0 mi NE 3.5 mph - N/A   Overcast
4:55 PM 46.4 °F - 24.8 °F 43% 30.15 in 10.0 mi Calm Calm - N/A   Mostly Cloudy
5:15 PM 46.4 °F 45.2 °F 24.6 °F 42% 30.15 in 10.0 mi East 3.5 mph - N/A   Overcast
5:35 PM 45.7 °F - 23.7 °F 42% 30.16 in 10.0 mi Calm Calm - N/A   Overcast
5:55 PM 44.6 °F - 24.4 °F 45% 30.16 in 10.0 mi Calm Calm - N/A   Overcast
6:15 PM 45.1 °F 43.7 °F 23.0 °F 42% 30.16 in 10.0 mi NE 3.5 mph - N/A   Overcast
6:35 PM 43.3 °F 41.7 °F 23.7 °F 46% 30.16 in 10.0 mi East 3.5 mph - N/A   Overcast
6:55 PM 42.3 °F - 24.1 °F 49% 30.16 in 10.0 mi Calm Calm - N/A   Overcast
7:15 PM 42.6 °F - 23.5 °F 47% 30.17 in 10.0 mi Calm Calm - N/A   Overcast
7:35 PM 42.6 °F - 23.7 °F 47% 30.18 in 10.0 mi Calm Calm - N/A   Overcast
7:55 PM 43.3 °F 39.2 °F 24.3 °F 47% 30.18 in 10.0 mi North 6.9 mph - N/A   Overcast
8:15 PM 43.9 °F 39.3 °F 25.0 °F 47% 30.18 in 10.0 mi North 8.1 mph - N/A   Overcast
8:35 PM 44.1 °F 39.5 °F 24.3 °F 46% 30.17 in 10.0 mi NNE 8.1 mph - N/A   Overcast
8:55 PM 43.9 °F 40.5 °F 24.1 °F 46% 30.18 in 10.0 mi North 5.8 mph - N/A   Overcast
9:15 PM 43.9 °F 37.9 °F 24.4 °F 46% 30.18 in 10.0 mi North 11.5 mph - N/A   Overcast
9:35 PM 43.3 °F 36.8 °F 26.2 °F 51% 30.18 in 10.0 mi North 12.7 mph - N/A   Overcast
9:55 PM 43.0 °F 36.8 °F 27.3 °F 54% 30.20 in 10.0 mi North 11.5 mph - N/A   Overcast
10:15 PM 42.4 °F 37.5 °F 28.2 °F 57% 30.19 in 10.0 mi North 8.1 mph - N/A   Overcast
10:35 PM 41.9 °F 36.3 °F 28.9 °F 60% 30.21 in 10.0 mi North 9.2 mph - N/A   Overcast
10:55 PM 41.9 °F 36.9 °F 28.6 °F 59% 30.21 in 10.0 mi North 8.1 mph - N/A   Overcast
11:15 PM 41.5 °F 35.0 °F 27.7 °F 58% 30.21 in 10.0 mi North 11.5 mph - N/A   Overcast
11:55 PM 40.8 °F 34.1 °F 27.3 °F 59% 30.21 in 10.0 mi North 11.5 mph - N/A   Overcast